Keno, OR

5:01 PM PST on January 20, 2017 (GMT -0800)
Klamath Falls International | | Change Station
Active Advisory: High Wind Watch

Elev 4094 ft 42.16 °N, 121.73 °W | Updated 8 minutes ago

Snow
Snow
35 °F
Feels Like 27 °F
N
12
Wind Variable Wind from SSE

Today
High -- | Low -- °F
--% Chance of Precip.
Yesterday
High -- | Low -- °F
Precip. -- in
Pressure 29.11 in
Visibility 10.0 miles
Clouds Mostly Cloudy 6000 ft
Mostly Cloudy 7500 ft
Overcast 11000 ft
Windchill 27 °F
Dew Point 29 °F
Humidity 78%
Rainfall 0.00 in
Snow Depth Not available.
7:30 AM 5:07 PM
Last Quarter, 40% visible
METAR KLMT 210053Z 15010KT 10SM BKN060 BKN075 OVC110 02/M02 A2910 RMK AO2 SLP855 T00171017
Pressure 29.11 in
Visibility 10.0 miles
Clouds Mostly Cloudy 6000 ft
Mostly Cloudy 7500 ft
Overcast 11000 ft
Windchill 27 °F
Dew Point 29 °F
Humidity 78%
Rainfall 0.00 in
Snow Depth Not available.
7:30 AM 5:07 PM
Last Quarter, 40% visible
METAR KLMT 210053Z 15010KT 10SM BKN060 BKN075 OVC110 02/M02 A2910 RMK AO2 SLP855 T00171017

Get Your Daily Forecast Email!

Thanks for signing up!

Be on the lookout for a verification email in your inbox.

You'll start receiving the daily forecast at 8 AM.

×

10-Day Weather Forecast

Almanac

Astronomy

Jan. 20, 2017 Rise Set
Actual Time
Civil Twilight
Nautical Twilight
Astronomical Twilight
Moon
Length of Visible Light
Length of Day
Tomorrow will be .
, % of the Moon is Illuminated

Today's Extremes

State Highs State Lows

Community

WunderPhotos

Upload Photos

1,962,540 photos uploaded!

WunderBlog® & News

Nearby

Air Quality

  Air Quality AQ Index Pollutant
Not available.

Snow Depth

Station Depth Elevation

Earthquake Activity

City Distance Mag. Time & Date
Minimum magnitude displayed is 2.5.

Coastal Water Temperatures

Place Temperature

Stations

Nearby Weather Stations

Station Location Temp. Windchill Dew Point Humidity Wind Precip. Elev Updated Type
                   

Watches & Warnings

High Wind Watch
Issued: 2:46 PM PST Jan. 20, 2017 – National Weather Service

... High wind watch remains in effect from late Saturday night
through Sunday afternoon...

* winds... south 40 to 50 with gusts to 60 mph possible.

* Locations include... Klamath Falls... Lakeview... Alturas and all
area highways including much of 97... 140... 395 and 139.

* Impacts... strong winds may make travel difficult on area
roadways... especially for high profile vehicles. Structural
damage... tree damage... and power outages are all possible.

* View the hazard area in detail at
http://weather.Gov/Medford/hazard

Precautionary/preparedness actions...

A high wind watch means there is the potential for a hazardous
high wind event. Sustained winds of at least 40 mph... or gusts of
58 mph or stronger may occur. Continue to monitor the latest
forecasts.